TimeCDT,TemperatureF,Dew PointF,Humidity,Sea Level PressureIn,VisibilityMPH,Wind Direction,Wind SpeedMPH,Gust SpeedMPH,PrecipitationIn,Events,Conditions,WindDirDegrees,DateUTC
12:58 AM,66.9,65.8,96,30.04,10.0,SSE,11.5,-,N/A,,Partly Cloudy,150,2013-04-08 05:58:00
1:58 AM,66.2,65.1,96,30.03,10.0,SSE,8.1,-,N/A,,Clear,150,2013-04-08 06:58:00
2:58 AM,65.8,65.5,99,30.02,10.0,SSE,4.6,-,N/A,,Clear,150,2013-04-08 07:58:00
3:58 AM,65.3,65.3,100,30.02,10.0,Calm,Calm,-,N/A,,Clear,30,2013-04-08 08:58:00
4:58 AM,65.3,65.3,100,30.03,10.0,ENE,3.5,-,N/A,,Clear,70,2013-04-08 09:58:00
5:58 AM,64.0,64.0,100,30.04,10.0,ENE,3.5,-,N/A,,Clear,70,2013-04-08 10:58:00
6:58 AM,63.7,63.7,100,30.06,10.0,East,4.6,-,N/A,,Clear,80,2013-04-08 11:58:00
7:58 AM,66.6,66.6,100,30.08,10.0,East,6.9,-,N/A,,Clear,100,2013-04-08 12:58:00
8:58 AM,68.9,66.6,92,30.08,10.0,ESE,12.7,19.6,N/A,,Clear,120,2013-04-08 13:58:00
9:58 AM,70.5,64.6,81,30.10,10.0,ESE,12.7,-,N/A,,Clear,120,2013-04-08 14:58:00
10:58 AM,71.8,64.2,77,30.12,10.0,SE,12.7,-,N/A,,Clear,140,2013-04-08 15:58:00
11:38 AM,73.4,64.4,73,30.11,10.0,SE,11.5,19.6,N/A,,Light Drizzle,130,2013-04-08 16:38:00
11:47 AM,73.4,64.4,73,30.11,10.0,SE,11.5,-,N/A,,Partly Cloudy,130,2013-04-08 16:47:00
11:58 AM,73.4,64.0,72,30.12,10.0,ESE,10.4,-,0.00,,Partly Cloudy,120,2013-04-08 16:58:00
12:58 PM,71.8,64.2,77,30.11,10.0,SE,12.7,-,N/A,,Mostly Cloudy,140,2013-04-08 17:58:00
1:58 PM,72.1,65.8,80,30.09,10.0,SE,10.4,-,N/A,,Partly Cloudy,140,2013-04-08 18:58:00
2:58 PM,73.0,66.4,80,30.08,10.0,SSE,12.7,-,N/A,,Clear,150,2013-04-08 19:58:00
3:58 PM,72.5,66.9,83,30.07,10.0,SE,11.5,-,N/A,,Clear,140,2013-04-08 20:58:00
4:58 PM,72.7,67.3,83,30.06,10.0,SE,11.5,19.6,N/A,,Clear,130,2013-04-08 21:58:00
5:58 PM,70.2,67.8,92,30.06,10.0,SE,13.8,-,N/A,,Clear,130,2013-04-08 22:58:00
6:19 PM,69.8,68.0,94,30.05,10.0,SE,8.1,18.4,N/A,,Partly Cloudy,130,2013-04-08 23:19:00
6:58 PM,68.2,67.6,98,30.06,10.0,SE,8.1,-,N/A,,Clear,130,2013-04-08 23:58:00
6:59 PM,68.0,68.0,100,30.06,10.0,ESE,6.9,-,N/A,,Partly Cloudy,120,2013-04-08 23:59:00
7:58 PM,67.3,67.3,100,30.08,10.0,SE,8.1,-,N/A,,Clear,130,2013-04-09 00:58:00
8:58 PM,67.3,67.3,100,30.08,10.0,SE,8.1,-,N/A,,Clear,130,2013-04-09 01:58:00
9:58 PM,67.1,67.1,100,30.09,10.0,SE,8.1,-,N/A,,Clear,130,2013-04-09 02:58:00
10:58 PM,66.9,66.9,100,30.09,10.0,SE,6.9,-,N/A,,Clear,130,2013-04-09 03:58:00
11:58 PM,66.7,66.7,100,30.07,10.0,ESE,5.8,-,N/A,,Clear,110,2013-04-09 04:58:00